Regional Weather Roundup
Issued by NWS Albany, NY

Home | Current Version | Previous Version | Graphics & Text | Print | Product List | Glossary Off
Versions: 1 2 3 4 5 6 7 8 9 10 11 12 13 14 15 16 17 18 19 20 21 22 23 24 25 26 27 28 29 30 31 32 33 34 35 36 37 38 39 40 41 42 43 44 45 46 47 48 49 50

000
ASUS41 KALY 051010
RWRALY

NEW YORK STATE HOURLY WEATHER ROUNDUP
NATIONAL WEATHER SERVICE ALBANY NY
600 AM EDT SAT SEP 05 2015

NOTE: "FAIR" INDICATES FEW OR NO CLOUDS BELOW 12,000 FEET WITH NO
SIGNIFICANT WEATHER AND/OR NO OBSTRUCTIONS TO VISIBILITY.

NYZ032-033-038>043-046>054-057>066-NYZ062>081-051100-
EAST


CITY           SKY/WX    TMP DP  RH WIND       PRES   REMARKS
ALBANY         PTCLDY    62  55  77 CALM      30.26R
GLENS FALLS    PTCLDY    56  53  90 N3        30.27R
POUGHKEEPSIE   CLEAR     60  56  86 CALM      30.26R
NEWBURGH       PTCLDY    66  61  82 CALM      30.28R
MONTGOMERY     CLEAR     61  56  83 CALM      30.26R
WHITE PLAINS   CLEAR     62  54  74 N5        30.25R
ISLIP          PTCLDY    62  58  86 NE5       30.23R
NEW YORK CITY  MOCLDY    68  60  75 E5        30.24R
CENTRAL PARK   MOCLDY    68  60  75 NE6       30.27R
$$

NYZ005>009-017-018-044>046-055-056-051100-
CENTRAL


CITY           SKY/WX    TMP DP  RH WIND       PRES   REMARKS
FULTON         CLEAR     68  65  90 VRB3      30.19R FOG
SYRACUSE       PTCLDY    66  65  96 E7        30.20R
ROME           PTCLDY    63  60  90 E6        30.24R
ELMIRA         CLOUDY    71  67  87 SE5       30.21R
BINGHAMTON     CLEAR     64  63  96 SE6       30.26R FOG
MONTICELLO     CLOUDY    63  63 100 CALM      30.29R
$$

NYZ026>034-041>043-051100-
NORTH


CITY           SKY/WX    TMP DP  RH WIND       PRES   REMARKS
WATERTOWN      CLEAR     61  59  93 E5        30.19R FOG
FORT DRUM      NOT AVBL
MASSENA        CLEAR     56  51  84 NE6       30.25R
SARANAC LAKE   CLEAR     43  41  93 CALM      30.27R
PLATTSBURGH    CLEAR     52  51  97 CALM      30.25R
$$

NYZ001>004-010>016-019>021-051100-
WEST


CITY           SKY/WX    TMP DP  RH WIND       PRES   REMARKS
NIAGARA FALLS  CLEAR     64  60  87 E5        30.14R
BUFFALO        CLEAR     69  64  84 S6        30.15R
DUNKIRK        CLEAR     70  66  87 W6        30.15R
JAMESTOWN      CLEAR     64  63  94 S6        30.21R
WELLSVILLE     PTCLDY    68  65  90 SE6       30.26R FOG
ROCHESTER      PTCLDY    66  63  90 CALM      30.17R
PENN YAN       CLEAR     64  62  93 S3        30.20R FOG
$$

             KEY
       WCI = WIND CHILL INDEX
       VSB = VISIBILITY
       HX  = HEAT INDEX
$$



USA.gov is the U.S. government's official web portal to all federal, state and local government web resources and services.